033  
ASUS41 KAKQ 020511  
RWRAKQ  
 
REGIONAL WEATHER ROUNDUP  
NATIONAL WEATHER SERVICE WAKEFIELD VA  
1200 AM EST FRI DEC 02 2022  
 
NOTE: "FAIR" INDICATES FEW OR NO CLOUDS BELOW 12,000 FEET WITH NO  
SIGNIFICANT WEATHER AND/OR S TO VISIBILITY
. * = DENOTES  
STATION MAY NOT REPORT PRECIPITATION (E.G., RAIN,SNOW,ETC.),
 
THUNDER OR FOG.  
 
VAZ042-051-052>054-056-020600-  
NORTHERN VIRGINIA  
 
CITY SKY/WX TMP DP RH WIND PRES REMARKS
 
WASH NATIONAL MOCLDY 37 22 54 E6 30.54R  
DULLES PTCLDY 28 20 71 CALM 30.52R  
FORT BELVOIR CLEAR 29 22 74 CALM 30.52R  
QUANTICO CLEAR 32 26 78 NW5 30.54R  
FREDERICKSBRG* CLEAR 30 25 81 CALM 30.51R  
STAFFORD* CLEAR 33 26 73 CALM 30.52R  
WARRENTON CLEAR 25 22 89 CALM 30.53R  
CULPEPER* CLEAR 27 22 81 CALM 30.53R  
MANASSAS* CLEAR 29 23 78 CALM 30.54R  
LEESBURG* CLEAR 30 27 86 CALM 30.53S  
WINCHESTER CLEAR 28 19 69 CALM 30.48R  
FRONT ROYAL* FAIR 30 18 59 CALM 30.49R  
LURAY* FAIR 28 23 80 CALM 30.49R  

 
 
VAZ048-049-060>072-079>083-020600-  
CENTRAL AND SOUTH CENTRAL VIRGINIA  
 
CITY SKY/WX TMP DP RH WIND PRES REMARKS
 
RICHMOND CLEAR 30 22 72 CALM 30.51S  
CHESTERFIELD* FAIR 26 23 88 CALM 30.51S  
PETERSBURG* CLEAR 26 25 95 CALM 30.52R  
HANOVER CLEAR 29 24 82 CALM 30.52S  
TAPPAHANNOCK* CLEAR 27 27 100 CALM 30.52S  
QUINTON* FAIR 28 24 84 CALM 30.51S  
CHARLOTTSVILLE CLEAR 35 18 49 N3 30.48S  
GORDONSVILLE* NOT AVBL  
ORANGE* CLEAR 27 23 86 CALM 30.52R  
LOUISA* CLEAR 26 21 80 SE3 30.50R  
BUMPASS* FAIR 28 24 83 CALM 30.51R  
FARMVILLE* CLEAR 26 24 92 CALM 30.49S  
CREWE* FAIR 25 23 90 CALM 30.50R  
FORT PICKETT* FAIR 28 23 81 CALM 30.50R  
CHASE CITY* FAIR 27 22 81 MISG 30.50S  
CLARKSVILLE* FAIR 30 30 100 CALM 30.50S  
SOUTH HILL* CLEAR 28 26 91 CALM 30.56S  
LAWRENCEVILLE* FAIR 31 25 78 CALM 30.51S  
EMPORIA* CLEAR 24 22 94 CALM 30.53S  

 
 
VAZ088>098-020600-  
SOUTHEAST VIRGINIA  
 
CITY SKY/WX TMP DP RH WIND PRES REMARKS
 
NORFOLK CLEAR 35 28 75 CALM 30.50F  
VIRGINIA BEACH CLEAR 30 24 78 CALM 30.50F  
NORFOLK NAVAL CLEAR 34 30 85 CALM 30.52F  
WEST POINT* CLEAR 26 23 91 CALM 30.53S  
SALUDA* FAIR 30 26 84 CALM 30.52S  
NEWPORT NEWS CLEAR 27 25 92 MISG 30.51F  
LANGLEY AFB CLEAR 31 29 94 CALM 30.50F  
FORT EUSTIS CLEAR 32 26 76 CALM 30.48F  
WILLIAMSBURG* NOT AVBL  
HR EXEC AP* FAIR 22 19 89 CALM 30.52F  
FRANKLIN* CLEAR 26 24 95 CALM 30.53S  
US460-WAKEFLD CLEAR 26 24 92 MISG 30.52R  

 
 
VAZ020-022-025-037-045-020600-  
WEST CENTRAL AND SOUTHWEST VIRGINIA  
 
CITY SKY/WX TMP DP RH WIND PRES REMARKS
 
STAUNTON* CLEAR 24 21 89 CALM 30.49R  
WAYNESBORO* FAIR 27 17 66 SW3 30.45F  
HOT SPRINGS VA PTCLDY 35 -5 17 S10 30.38S  
LYNCHBURG CLEAR 25 19 78 CALM 30.48R  
DANVILLE CLEAR 27 22 81 MISG 30.50S  
SOUTH BOSTON* FAIR 26 23 89 CALM 30.51R  
MARTINSVILLE CLEAR 23 20 86 CALM 30.51S  
ROANOKE CLEAR 29 20 69 CALM 30.49S  
BLACKSBURG CLEAR 25 20 80 CALM 30.47S  
DUBLIN* CLEAR 24 20 83 CALM 30.44F  
MARION* CLEAR 24 16 69 SE3 30.43F  
HILLSVILLE* CLEAR 33 2 27 S5 30.41F  
RICHLANDS* FAIR 35 10 35 CALM 30.35S  
WISE* CLEAR 34 12 40 SW7 30.37S  
ABINGDON* CLEAR 30 19 63 E6 30.39S  

 
 
MDZ021>025-VAZ099-100-020600-  
SOUTHERN MARYLAND AND THE DELMARVA PENINSULA  
 
CITY SKY/WX TMP DP RH WIND PRES REMARKS
 
PATUXENT RIVER CLEAR 28 22 78 W6 30.53R  
BAY BRIDGE APT CLEAR 37 21 54 N6 30.53S  
LEONARDTOWN CLEAR 28 25 86 CALM 30.54R  
DOVER CLEAR 31 16 54 CALM 30.51S  
GEORGETOWN CLEAR 28 22 78 CALM 30.52S  
EASTON CLEAR 29 26 90 CALM 30.57R  
CAMBRIDGE CLEAR 27 27 100 CALM 30.53R  
SALISBURY CLEAR 27 22 81 CALM 30.51F  
TANGIER FAIR 41 27 57 NE5 30.52S  
OCEAN CITY CLEAR 25 24 96 CALM 30.53S  
WALLOPS ISLAND CLEAR 27 23 85 CALM 30.53S  
ACCOMACK* CLEAR 25 22 90 E3 30.51F  

 
 
NCZ012>017-030>032-020600-  
NORTH CENTRAL AND EASTERN NORTH CAROLINA  
 
CITY SKY/WX TMP DP RH WIND PRES REMARKS
 
ROANOKE RAPIDS FAIR 27 27 100 CALM 30.52S  
RALEIGH PTCLDY 31 24 75 CALM 30.51R  
ELIZABETH CITY CLEAR 35 29 78 SW5 30.52S  
AHOSKIE* CLEAR 26 26 100 CALM 30.53S  
EDENTON* CLEAR 32 30 92 CALM 30.53S  
CURRITUCK* CLEAR 32 29 88 CALM 30.51F  
KILL DEVIL HLS CLEAR 46 29 53 NE5 30.50S  
MANTEO CLEAR 44 30 57 NE7 30.52S  
CAPE HATTERAS CLEAR 47 35 63 VRB5 30.50S  
TARBORO* FAIR 26 25 96 CALM 30.53S  
GOLDSBORO CLEAR 29 24 82 CALM 30.50R  
WASHINGTON NOT AVBL  
GREENVILLE CLEAR 30 30 100 CALM 30.53S  
NEW BERN CLEAR 32 29 88 MISG 30.53F  
WILMINGTON CLEAR 34 30 85 NE6 30.50F  

 
 
VAZ048-020600-  
ELSEWHERE  
 
CITY SKY/WX TMP DP RH WIND PRES REMARKS
 
HARRISBURG PA PTCLDY 30 19 63 NW6 30.50R  
BALTIMORE PTCLDY 27 19 72 CALM 30.53R  
ANNAPOLIS CLEAR 35 26 69 CALM 30.54R  
ANDREWS AFB CLEAR 27 22 79 CALM 30.51R  
PHILADELPHIA CLEAR 32 20 61 W7 30.53R  
HENDERSON NC CLEAR 24 24 100 SW3 30.49F  
GREENSBORO CLEAR 32 22 66 CALM 30.48R  
ROCKY MOUNT CLEAR 29 26 89 CALM 30.52S  

 
 
VAZ100-020600-  
MARINE  
 
STATION/POSITION TIME TEMP WIND PRES WAVE SWELL
 
AIR SEA DIR/SP/G HT/PER HT/PER  
(UTC) (F) (DEG/KT/KT) (MB) (FT/S) (FT/S)  
CAPE MAY NJ 0430 39 340/ 6/ 10 1033.6R  
LEWES DE 0430 41 48 320/ 8/ 11 1033.8F  
15NM E FENWICK I 0450 43 57 320/ 12/ 16 1033.2F 2/ 5  
OCEAN-CITY-INLET 0430 35 48 340/ 1/ 4 1034.0R  
44089 WALLOPS IS 0456 54 N/A 2/ 3  
WACHAPREAGUE VA 0430 31 48 310/ 2/ 3 1032.7F  
THOMAS POINT MD 0500 39 350/ 11/ 12 1034.6R  
GOOSES REEF MD 0448 39 340/ 14 1034.8R 1  
COVE POINT MD 0430 41 260/ 5/ 6 1033.7R  
SOLOMONS ISLAND 0430 37 51 330/ 1/ 4 1032.1S  
BISHOPS HEAD MD 0430 40 45 30/ 6/ 7 1033.2F  
PINEY POINT MD 0424 100/ 3/ 4 N/A  
POTOMAC MD 0448 40 51 330/ 6/ 10 N/A 0  
CAMBRIDGE MD 0430 36 46 CALM / 2 1033.7R  
LEWISETTA VA 0424 36 50 290/ 2/ 3 1033.4  
RAPPAHANNOCK LGT 0424 80/ 8/ 9 1033.5  
STINGRAY PT 0448 43 52 20/ 6/ 10 N/A 1  
YORK RVR RNG VA 0424 46 40/ 5/ 6 1033.3  
YORKTOWN VA 0424 41 52 CALM / 2 1033.1  
JAMESTOWN VA 0448 35 30/ 2/ 4 N/A 0  
DOMINION TERM VA 0424 42 30/ 3/ 4 1033.3  
KIPTOPEKE VA 0424 55 80/ 5/ 5 N/A  
CHES BAY BRIDGE 0424 46 70/ 7/ 8 1032.4  
CAPE HENRY VA 0424 46 20/ 8/ 10 1033.5  
WILLOUBY STN VA 0424 46 30/ 5/ 6 1033.4  
S CRANEY ISL VA 0424 40 CALM / 1 1033.0  
CAPE HENRY BUOY 0456 56 N/A 3/ 7  
1ST LANDING BUOY 0448 44 54 40/ 10/ 14 1033.6F 1  
DUCK PIER NC 0424 49 57 30/ 14/ 16 1032.7  
44100 DUCK FRF 0456 59 N/A 4/ 6  
44056 DUCK FRF 0456 59 N/A 4/ 6  
OREGON INLET NC 0424 48 56 30/ 10/ 13 1033.0  
HATTERAS NC 0424 49 57 30/ 11/ 15 1033.0  
DIAMOND SHLS NC 0450 76 20/ 16/ 21 1032.2S  
CAPE LOOKOUT NC 0400 48 10/ 9/ 11 1033.6R  

 
 
 
CLICK HERE TO GO TO PREVIOUS BULLETINS.

The Nexlab VA Page
The Nexlab NC Page
The Nexlab MD Page Main Text Page